Regional Weather Roundup
Issued by NWS

Home | Current Version | Previous Version | Graphics & Text | Print | Product List | Glossary On
Versions: 1 2 3 4 5 6 7 8 9 10 11 12 13 14 15 16 17 18 19 20 21 22 23 24 25 26 27 28 29 30 31 32 33 34 35 36 37 38 39 40 41 42 43 44 45 46 47 48 49 50
000
ASUS43 KDTX 141410
RWRMI
MICHIGAN HOURLY REGIONAL WEATHER ROUNDUP
NATIONAL WEATHER SERVICE DETROIT/PONTIAC MI
900 AM EST THU DEC 14 2017

NOTE: "FAIR" INDICATES FEW OR NO CLOUDS BELOW 12,000 FEET WITH NO
SIGNIFICANT WEATHER AND/OR OBSTRUCTION TO VISIBILITY.

MIZ047>049-052>055-059>063-066>070-074>076-081>083-141500-
SOUTHEAST LOWER MICHIGAN

CITY           SKY/WX    TMP DP  RH WIND       PRES   REMARKS
ADRIAN         CLOUDY    10   5  80 N10       29.97R WCI  -4
ALMA           CLOUDY   -13 -18  79 CALM      29.98R
ANN ARBOR      CLOUDY    11   5  77 W8        29.95R WCI  -1
BAD AXE        FLURRIES  13   8  79 NW9       29.92R WCI   1
CARO           CLOUDY     4   0  82 W6        29.94R WCI  -6
DETROIT CITY   CLEAR     14   8  77 NW6       29.95R WCI   5
DETROIT        PTCLDY    16   7  67 NW9       29.97R WCI   4
FLINT          CLOUDY     3   0  87 W8        29.97R WCI -10
GROSSE ILE     PTCLDY    14   8  78 NW9       29.96R WCI   2
HILLSDALE      PTCLDY     7   3  85 NW5       29.94R WCI  -2
HOWELL         CLOUDY     7   5  89 W5        29.95R WCI  -2

CITY           SKY/WX    TMP DP  RH WIND       PRES   REMARKS
JACKSON        CLOUDY     6   2  83 SW3       29.97R
LAMBERTVILLE   CLOUDY    12   8  83 CALM      29.98R
LANSING        CLOUDY     4   2  91 CALM      29.98R
LAPEER         FAIR       7   3  84 W5        29.95R WCI  -2
MASON          SNOW       4  -1  79 CALM      29.96R VSB 1/4
MONROE         CLOUDY    10   4  75 NW6       29.97R WCI   0
MT. CLEMENS    PTCLDY    13   9  82 NW9       29.93R WCI   1
PONTIAC        CLOUDY     7   4  87 W8        29.92R WCI  -6
PORT HOPE        N/A     16   9  74 W10       29.90R WCI   4
PORT HURON     CLEAR     12   7  79 W8        29.92R WCI   1
TRI CITIES     CLOUDY     2   1  96 SW7       29.98R WCI -11
MIDLAND        FAIR      -5 -10  81 CALM      29.97R
TROY           CLEAR     13   8  79 NW8       29.96R WCI   2
SAGINAW HB     CLOUDY     3   1  92 W6        29.97R WCI  -8
$$
MIZ043>046-050>051-056>058-064>065-071>073-077>080-141500-
SOUTHWEST LOWER MICHIGAN

CITY           SKY/WX    TMP DP  RH WIND       PRES   REMARKS
BATTLE CREEK   PTCLDY     2   0  91 CALM      29.97R
BENTON HARBOR  CLOUDY    16   9  74 SE5       30.01R WCI   9
BIG RAPIDS     PTCLDY    -5 -10  81 CALM      29.94R
COLDWATER      CLOUDY     4   2  88 CALM      29.98R
HOLLAND        CLOUDY    10   6  84 SE3       30.00R
GRAND RAPIDS   PTCLDY     3   1  91 SW3       29.98R
IONIA          FAIR       1  -3  85 CALM      29.97R
KALAMAZOO      CLOUDY     4   1  88 W5        29.99R WCI  -5
LUDINGTON      CLOUDY    16  13  88 CALM      29.96R
MARSHALL       FOG        3  -1  85 CALM      29.97R VSB 1/2
MOUNT PLEASANT LGT SNOW   2  -2  81 CALM      29.96R
MUSKEGON       FLURRIES  12   7  80 SE3       29.99R
SOUTH HAVEN    CLOUDY    12   9  87 CALM      30.00R
$$
MIZ016>042-141500-
NORTHERN LOWER MICHIGAN

CITY           SKY/WX    TMP DP  RH WIND       PRES   REMARKS
ALPENA         CLOUDY     8   4  83 W7        29.92R WCI  -3
BEAVER ISLAND  CLOUDY    18  11  74 NW6       29.93S WCI  10
BELLAIRE       LGT SNOW   6   4  94 CALM      29.95R
CADILLAC       CLOUDY    -4  -9  81 CALM      29.88S
CHARLEVOIX     CLOUDY    19  11  72 N10       29.95R WCI   7
FRANKFORT      CLOUDY    24  13  63 N3        29.95R
GAYLORD        LGT SNOW   3   0  87 CALM      29.88R FOG
GRAYLING       LGT SNOW -10 -15  76 CALM      29.91R VSB 1
HARBOR SPRINGS MOCLDY     8   5  86 NE3       29.92R
HOUGHTON LAKE  PTCLDY    -1  -3  91 W5        29.91R WCI -11
MANISTEE       FLURRIES  14  12  92 E3        29.96R
OSCODA         CLEAR      1  -3  82 CALM      29.93R
PELLSTON       CLOUDY     9   7  92 CALM      29.93R
ROGERS CITY    LGT SNOW  10   6  83 W8        29.92S WCI  -1
TRAVERSE CITY  LGT SNOW  15  11  83 S5        29.94R VSB 3/4 WCI   8
$$
MIZ007>008-015-141500-
EASTERN UPPER MICHIGAN

CITY           SKY/WX    TMP DP  RH WIND       PRES   REMARKS
KINROSS        LGT SNOW   0  -4  85 SE3       29.91R FOG
MACKINAC ISLAN FLURRIES  13   8  81 NW7       29.91S WCI   3
NEWBERRY       FLURRIES  11  10  95 W3        29.90R
S. S. MARIE    CLOUDY     1  -4  79 S3        29.92R HAZE
$$
MIZ004>006-011>014-085-141500-
CENTRAL UPPER MICHIGAN

CITY           SKY/WX    TMP DP  RH WIND       PRES   REMARKS
MANISTIQUE     FLURRIES  13   8  81 W5        29.94R WCI   5
ESCANABA       PTCLDY    10   4  76 W7        29.97R WCI  -1
MENOMINEE      CLOUDY     3   0  87 W3        30.01R
SAWYER-GWINN   FLURRIES  10   7  85 NW5       29.91S WCI   2
$$
MIZ001>003-009>011-084-141500-
WESTERN UPPER MICHIGAN

CITY           SKY/WX    TMP DP  RH WIND       PRES   REMARKS
IRON MOUNTAIN  PTCLDY     3   0  87 CALM      29.92S
HOUGHTON       CLOUDY    14   6  70 NW10      29.91R WCI   1
IRONWOOD       FLURRIES  11   9  92 SW7       29.95S WCI   0
$$

ABBREVIATIONS USED IN REMARKS
   TC - TEMPERATURE IN CELSIUS
  WCI - WIND CHILL INDEX
   HX - HEAT INDEX
  VSB - VISIBILITY




USA.gov is the U.S. government's official web portal to all federal, state and local government web resources and services.